This demonstration page uses our WeatherBlox Daily Observations layout. Learn more.

Left ArrowRight Arrow

39.92423, -83.80882

Hourly Observations for February 14, 2022

Temp ( °F °C ) Dew Point ( °F °C ) Humidity (%) Winds ( mph kmh ) Pressure ( in mb ) Visibility ( mi km ) Precip ( " mm )
12:56 am 00:56 Clear 10 -12.2 8 -13.3 92 92 NNW 5 7 30.28 1025 10 16 0.00 0.00
1:56 am 01:56 Clear 11 -11.7 8 -13.3 88 88 WNW 8 13 30.27 1025 10 16 0.00 0.00
2:56 am 02:56 Mostly Clear 10 -12.2 7 -13.9 87 87 NW 3 6 30.27 1025 10 16 0.00 0.00
3:56 am 03:56 Partly Cloudy 10 -12.2 8 -13.3 92 92 Calm 30.27 1025 10 16 0.00 0.00
4:56 am 04:56 Partly Cloudy 9 -12.8 8 -13.3 96 96 Calm 30.28 1026 10 16 0.00 0.00
5:56 am 05:56 Mostly Cloudy 11 -11.7 9 -12.8 92 92 WNW 6 9 30.29 1026 10 16 0.00 0.00
6:56 am 06:56 Cloudy 11 -11.7 8 -13.3 88 88 Calm 30.31 1026 10 16 0.00 0.00
7:56 am 07:56 Cloudy 11 -11.7 10 -12.2 96 96 SW 3 6 30.33 1027 10 16 0.00 0.00
8:56 am 08:56 Cloudy 12 -11.1 10 -12.2 92 92 Calm 30.35 1028 10 16 0.00 0.00
9:56 am 09:56 Cloudy 14 -10 10 -12.2 84 84 S 8 13 30.32 1027 10 16 0.00 0.00
10:56 am 10:56 Cloudy with Light Snow 16 -8.9 12 -11.1 84 84 W 5 7 30.38 1029 8 13 0.00 0.00
11:14 am 11:14 Cloudy with Light Snow 18 -8 12 -11 79 79 Calm 30.40 1029 9 14 0.00 0.00
11:56 am 11:56 Mostly Cloudy 18 -7.8 11 -11.7 74 74 Calm 30.39 1029 10 16 0.00 0.00
12:45 pm 12:45 Partly Cloudy 19 -7 10 -12 68 68 WSW 10 17 30.41 1030 10 16 0.00 0.00
12:56 pm 12:56 Mostly Sunny 20 -6.7 10 -12.2 65 65 SW 7 11 30.38 1029 10 16 0.00 0.00
1:56 pm 13:56 Sunny 22 -5.6 10 -12.2 60 60 SSW 3 6 30.35 1028 10 16 0.00 0.00
2:56 pm 14:56 Mostly Sunny 22 -5.6 9 -12.8 57 57 W 6 9 30.35 1028 10 16 0.00 0.00
3:56 pm 15:56 Cloudy 23 -5 10 -12.2 57 57 W 5 7 30.35 1028 10 16 0.00 0.00
4:56 pm 16:56 Cloudy 23 -5 11 -11.7 60 60 SSW 7 11 30.37 1028 10 16 0.00 0.00
5:56 pm 17:56 Sunny 23 -5 12 -11.1 63 63 SW 8 13 30.38 1029 10 16 0.00 0.00
6:56 pm 18:56 Clear 21 -6.1 11 -11.7 65 65 Calm 30.41 1030 10 16 0.00 0.00
7:56 pm 19:56 Clear 19 -7.2 13 -10.6 77 77 Calm 30.42 1030 10 16 0.00 0.00
8:56 pm 20:56 Mostly Cloudy 19 -7.2 15 -9.4 84 84 Calm 30.43 1031 10 16 0.00 0.00
9:56 pm 21:56 Mostly Cloudy 19 -7.2 14 -10 81 81 Calm 30.45 1031 10 16 0.00 0.00
10:56 pm 22:56 Cloudy 20 -6.7 17 -8.3 89 89 Calm 30.46 1032 10 16 0.00 0.00
11:56 pm 23:56 Partly Cloudy 19 -7.2 16 -8.9 88 88 SSW 3 6 30.47 1032 10 16 0.00 0.00

Powered by AerisWeather